TimeCST,TemperatureF,Dew PointF,Humidity,Sea Level PressureIn,VisibilityMPH,Wind Direction,Wind SpeedMPH,Gust SpeedMPH,PrecipitationIn,Events,Conditions,WindDirDegrees,DateUTC
12:53 AM,27.0,21.0,78,29.92,10.0,NW,12.7,-,N/A,,Clear,320,2013-02-26 06:53:00
1:53 AM,24.1,19.9,84,29.92,10.0,West,10.4,-,N/A,,Clear,280,2013-02-26 07:53:00
2:53 AM,24.1,19.0,81,29.90,10.0,WNW,9.2,-,N/A,,Clear,300,2013-02-26 08:53:00
3:53 AM,21.9,19.0,89,29.89,10.0,NW,9.2,-,N/A,,Clear,320,2013-02-26 09:53:00
4:53 AM,21.0,18.0,88,29.90,10.0,WNW,5.8,-,N/A,,Clear,300,2013-02-26 10:53:00
5:53 AM,21.0,18.0,88,29.91,10.0,NW,6.9,-,N/A,,Clear,320,2013-02-26 11:53:00
6:53 AM,19.9,16.0,85,29.91,10.0,WNW,5.8,-,N/A,,Clear,300,2013-02-26 12:53:00
7:53 AM,21.0,17.1,85,29.91,10.0,West,6.9,-,N/A,,Clear,270,2013-02-26 13:53:00
8:53 AM,25.0,19.9,81,29.92,10.0,WNW,5.8,-,N/A,,Clear,300,2013-02-26 14:53:00
9:53 AM,30.0,23.0,75,29.91,10.0,WNW,3.5,-,N/A,,Clear,290,2013-02-26 15:53:00
10:53 AM,34.0,24.1,67,29.90,10.0,NW,3.5,-,N/A,,Clear,310,2013-02-26 16:53:00
11:53 AM,37.0,24.1,59,29.88,10.0,South,3.5,-,N/A,,Clear,190,2013-02-26 17:53:00
12:53 PM,42.1,27.0,55,29.85,10.0,SSE,3.5,-,N/A,,Clear,150,2013-02-26 18:53:00
1:53 PM,46.9,32.0,56,29.80,10.0,South,8.1,-,N/A,,Clear,180,2013-02-26 19:53:00
2:53 PM,53.1,30.9,43,29.75,10.0,SSW,10.4,-,N/A,,Clear,210,2013-02-26 20:53:00
3:53 PM,55.0,28.9,37,29.73,10.0,Calm,Calm,-,N/A,,Clear,0,2013-02-26 21:53:00
4:53 PM,57.9,32.0,37,29.72,10.0,NNW,5.8,-,N/A,,Partly Cloudy,330,2013-02-26 22:53:00
5:53 PM,57.0,32.0,39,29.72,10.0,North,3.5,-,N/A,,Partly Cloudy,10,2013-02-26 23:53:00
6:53 PM,46.9,37.0,68,29.76,10.0,NNE,8.1,-,N/A,,Partly Cloudy,20,2013-02-27 00:53:00
7:53 PM,46.0,34.0,63,29.81,10.0,NE,15.0,-,N/A,,Mostly Cloudy,50,2013-02-27 01:53:00
8:53 PM,46.0,28.0,50,29.84,10.0,WNW,6.9,-,N/A,,Partly Cloudy,300,2013-02-27 02:53:00
9:53 PM,42.1,23.0,47,29.86,10.0,NW,15.0,-,N/A,,Partly Cloudy,310,2013-02-27 03:53:00
10:53 PM,37.0,27.0,67,29.88,10.0,NW,13.8,-,N/A,,Partly Cloudy,310,2013-02-27 04:53:00
11:53 PM,33.1,28.9,85,29.91,10.0,NNW,16.1,-,N/A,,Scattered Clouds,330,2013-02-27 05:53:00